When you browse on this site, cookies collect data to enhance your experience and personalize the content and advertising you see.
Visit our Privacy Policy to learn more. By continuing to use the site, you agree to this use of cookies and data.
EN

Hourly Weather Yenakievo

Today, 12 July, Sunday

Time Temperature Precipitation Wind Pressure Humidity
00:00 +20°C° 0 mm 3 mps 744 mmHg 58%
01:00 +20°C° 0 mm 3 mps 744 mmHg 61%
02:00 +19°C° 0 mm 3 mps 743 mmHg 64%
03:00 +19°C° 0 mm 3 mps 743 mmHg 66%
04:00 +19°C° 0 mm 3 mps 743 mmHg 68%
05:00 +19°C° 0 mm 4 mps 742 mmHg 69%
06:00 +19°C° 0 mm 4 mps 742 mmHg 71%
07:00 +21°C° 0 mm 4 mps 742 mmHg 68%
08:00 +23°C° 0 mm 4 mps 742 mmHg 65%
09:00 +26°C° 0 mm 4 mps 742 mmHg 60%
10:00 +28°C° 0 mm 4 mps 741 mmHg 56%
11:00 +30°C° 0 mm 4 mps 741 mmHg 53%
12:00 +33°C° 0 mm 5 mps 741 mmHg 49%
13:00 +33°C° 0 mm 4 mps 741 mmHg 46%
14:00 +34°C° 0 mm 4 mps 740 mmHg 44%
15:00 +35°C° 0 mm 4 mps 740 mmHg 40%
16:00 +35°C° 0 mm 3 mps 739 mmHg 41%
17:00 +34°C° 0 mm 3 mps 739 mmHg 42%
18:00 +34°C° 0 mm 2 mps 738 mmHg 43%
19:00 +31°C° 0.1 mm 2 mps 738 mmHg 47%
20:00 +29°C° 0.1 mm 3 mps 738 mmHg 51%
21:00 +28°C° 0.1 mm 3 mps 738 mmHg 56%
22:00 +26°C° 0.1 mm 3 mps 738 mmHg 63%
23:00 +23°C° 0.1 mm 4 mps 737 mmHg 70%

Tomorrow, 13 July, Monday

Time Temperature Precipitation Wind Pressure Humidity
00:00 +21°C° 0.1 mm 4 mps 737 mmHg 78%
01:00 +21°C° 0.1 mm 4 mps 737 mmHg 77%
02:00 +21°C° 0.1 mm 3 mps 737 mmHg 76%
03:00 +21°C° 0.1 mm 3 mps 737 mmHg 75%
04:00 +21°C° 0 mm 3 mps 736 mmHg 75%
05:00 +21°C° 0 mm 2 mps 736 mmHg 76%
06:00 +21°C° 0 mm 2 mps 736 mmHg 77%
07:00 +23°C° 0.2 mm 2 mps 736 mmHg 72%
08:00 +25°C° 0.2 mm 1 mps 736 mmHg 67%
09:00 +26°C° 0.2 mm 1 mps 736 mmHg 62%
10:00 +28°C° 0 mm 2 mps 736 mmHg 56%
11:00 +30°C° 0 mm 2 mps 736 mmHg 49%
12:00 +33°C° 0 mm 3 mps 736 mmHg 43%
13:00 +33°C° 0.1 mm 4 mps 736 mmHg 41%
14:00 +33°C° 0.1 mm 5 mps 736 mmHg 39%
15:00 +33°C° 0.1 mm 6 mps 736 mmHg 37%
16:00 +32°C° 0.1 mm 5 mps 736 mmHg 40%
17:00 +30°C° 0.1 mm 5 mps 735 mmHg 44%
18:00 +29°C° 0.1 mm 5 mps 735 mmHg 47%
19:00 +27°C° 0 mm 3 mps 735 mmHg 55%
20:00 +25°C° 0 mm 2 mps 735 mmHg 64%
21:00 +23°C° 0 mm 1 mps 735 mmHg 72%
22:00 +23°C° 0.1 mm 1 mps 735 mmHg 74%
23:00 +22°C° 0.1 mm 1 mps 735 mmHg 76%

Day after tomorrow, 14 July, Tuesday

Time Temperature Precipitation Wind Pressure Humidity
00:00 +22°C° 0.1 mm 1 mps 734 mmHg 77%
01:00 +21°C° 0 mm 1 mps 734 mmHg 81%
02:00 +21°C° 0 mm 1 mps 735 mmHg 84%
03:00 +20°C° 0 mm 1 mps 735 mmHg 87%
04:00 +20°C° 0 mm 2 mps 735 mmHg 88%
05:00 +20°C° 0 mm 2 mps 735 mmHg 88%
06:00 +20°C° 0 mm 3 mps 735 mmHg 89%
07:00 +20°C° 0 mm 3 mps 735 mmHg 86%
08:00 +20°C° 0 mm 4 mps 735 mmHg 84%
09:00 +20°C° 0 mm 4 mps 736 mmHg 82%
10:00 +21°C° 0 mm 4 mps 736 mmHg 79%
11:00 +21°C° 0 mm 4 mps 736 mmHg 76%
12:00 +21°C° 0 mm 4 mps 736 mmHg 73%
13:00 +21°C° 0 mm 4 mps 736 mmHg 72%
14:00 +21°C° 0 mm 4 mps 736 mmHg 71%
15:00 +21°C° 0 mm 5 mps 737 mmHg 70%
16:00 +21°C° 0.1 mm 5 mps 737 mmHg 67%
17:00 +22°C° 0.1 mm 5 mps 737 mmHg 65%
18:00 +22°C° 0.1 mm 5 mps 737 mmHg 62%
19:00 +21°C° 0.1 mm 5 mps 737 mmHg 69%
20:00 +19°C° 0.1 mm 4 mps 738 mmHg 75%
21:00 +18°C° 0.1 mm 4 mps 738 mmHg 82%
22:00 +17°C° 0 mm 4 mps 738 mmHg 85%
23:00 +15°C° 0 mm 4 mps 738 mmHg 88%

15 July, Wednesday

Time Temperature Precipitation Wind Pressure Humidity
00:00 +15°C° 0 mm 4 mps 738 mmHg 90%
01:00 +14°C° 0 mm 4 mps 738 mmHg 90%
02:00 +14°C° 0 mm 4 mps 738 mmHg 90%
03:00 +14°C° 0 mm 4 mps 739 mmHg 90%
04:00 +14°C° 0 mm 5 mps 739 mmHg 89%
05:00 +14°C° 0 mm 5 mps 739 mmHg 87%
06:00 +15°C° 0 mm 6 mps 739 mmHg 85%
07:00 +15°C° 0 mm 6 mps 739 mmHg 82%
08:00 +16°C° 0 mm 6 mps 740 mmHg 79%
09:00 +17°C° 0 mm 6 mps 740 mmHg 76%
10:00 +20°C° 0 mm 6 mps 741 mmHg 70%
11:00 +21°C° 0 mm 6 mps 741 mmHg 64%
12:00 +22°C° 0 mm 6 mps 741 mmHg 57%
13:00 +23°C° 0.1 mm 6 mps 741 mmHg 53%
14:00 +24°C° 0.1 mm 6 mps 741 mmHg 48%
15:00 +26°C° 0.1 mm 6 mps 741 mmHg 43%
16:00 +26°C° 0 mm 6 mps 741 mmHg 44%
17:00 +25°C° 0 mm 5 mps 741 mmHg 45%
18:00 +25°C° 0 mm 5 mps 741 mmHg 45%
19:00 +22°C° 0 mm 4 mps 742 mmHg 48%
20:00 +21°C° 0 mm 3 mps 742 mmHg 52%
21:00 +20°C° 0 mm 2 mps 742 mmHg 55%
22:00 +19°C° 0 mm 2 mps 742 mmHg 58%
23:00 +19°C° 0 mm 1 mps 742 mmHg 62%

16 July, Thursday

Time Temperature Precipitation Wind Pressure Humidity
00:00 +19°C° 0 mm 1 mps 742 mmHg 66%
01:00 +18°C° 0 mm 1 mps 742 mmHg 67%
02:00 +18°C° 0 mm 1 mps 742 mmHg 69%
03:00 +16°C° 0 mm 1 mps 742 mmHg 70%
04:00 +18°C° 0 mm 1 mps 742 mmHg 70%
05:00 +18°C° 0 mm 1 mps 742 mmHg 71%
06:00 +18°C° 0 mm 1 mps 742 mmHg 71%
07:00 +20°C° 0 mm 1 mps 742 mmHg 65%
08:00 +22°C° 0 mm 1 mps 742 mmHg 58%
09:00 +23°C° 0 mm 2 mps 742 mmHg 52%
10:00 +24°C° 0 mm 2 mps 742 mmHg 48%
11:00 +25°C° 0 mm 2 mps 742 mmHg 44%
12:00 +26°C° 0 mm 3 mps 742 mmHg 40%
13:00 +27°C° 0 mm 3 mps 742 mmHg 40%
14:00 +27°C° 0 mm 3 mps 742 mmHg 39%
15:00 +27°C° 0 mm 3 mps 742 mmHg 39%
16:00 +27°C° 0 mm 3 mps 741 mmHg 41%
17:00 +27°C° 0 mm 3 mps 741 mmHg 43%
18:00 +26°C° 0 mm 3 mps 741 mmHg 46%
19:00 +25°C° 0 mm 2 mps 741 mmHg 49%
20:00 +23°C° 0 mm 2 mps 741 mmHg 53%
21:00 +21°C° 0 mm 2 mps 741 mmHg 57%
22:00 +20°C° 0 mm 2 mps 741 mmHg 58%
23:00 +21°C° 0 mm 1 mps 741 mmHg 59%

17 July, Friday

Time Temperature Precipitation Wind Pressure Humidity
00:00 +20°C° 0 mm 1 mps 741 mmHg 60%
01:00 +19°C° 0 mm 1 mps 741 mmHg 61%
02:00 +19°C° 0 mm 1 mps 741 mmHg 62%
03:00 +19°C° 0 mm 1 mps 741 mmHg 63%
04:00 +19°C° 0 mm 1 mps 741 mmHg 63%
05:00 +19°C° 0 mm 1 mps 741 mmHg 63%
06:00 +20°C° 0 mm 1 mps 741 mmHg 63%
07:00 +21°C° 0 mm 1 mps 741 mmHg 58%
08:00 +23°C° 0 mm 1 mps 741 mmHg 52%
09:00 +25°C° 0 mm 2 mps 741 mmHg 47%
10:00 +26°C° 0 mm 1 mps 741 mmHg 43%
11:00 +27°C° 0 mm 1 mps 741 mmHg 40%
12:00 +28°C° 0 mm 1 mps 741 mmHg 36%
13:00 +29°C° 0 mm 1 mps 741 mmHg 35%
14:00 +29°C° 0 mm 1 mps 741 mmHg 34%
15:00 +30°C° 0 mm 1 mps 741 mmHg 32%
16:00 +29°C° 0 mm 2 mps 741 mmHg 33%
17:00 +29°C° 0 mm 2 mps 741 mmHg 34%
18:00 +29°C° 0 mm 2 mps 741 mmHg 35%
19:00 +27°C° 0 mm 3 mps 741 mmHg 40%
20:00 +25°C° 0 mm 3 mps 741 mmHg 45%
21:00 +24°C° 0 mm 3 mps 741 mmHg 50%
22:00 +22°C° 0 mm 3 mps 741 mmHg 52%
23:00 +21°C° 0 mm 3 mps 741 mmHg 55%
Show more